[[{"header":{"parameterUnit":"m.s-1","parameterCategory":1,"la1":30.2991,"la2":30.254,"lo1":-89.0895,"lo2":-89.0444,"dy":0.0017,"dx":0.0017,"nx":28,"ny":28,"refTime":"2024-08-24T03:00:00:Z","depth":0,"parameterNumber":2,"parameterNumberName":"U-component_of_WINDS"},"data":[0,0,0,0,0,0,0,0,0,0,0,0,0,0,0,0,0,0,0,0,0,0,0,0,0,0,0,0,0,0,0,0,0,0,0,0,0,0,0,0,0,0,0,0,0,0,0,0,0,0,0,0,0,0,0,0,0,0,-3.5578,-3.5577,0,-3.553,-3.5529,-3.5529,-3.5406,-3.5403,-3.5401,-3.5398,-3.5351,-3.5352,-3.5353,0,0,0,0,0,0,0,0,0,0,0,0,0,-3.5566,-3.5567,-3.5578,-3.5577,-3.5576,-3.553,-3.5529,-3.5529,-3.5406,-3.5403,-3.54,-3.5397,-3.5351,-3.5352,-3.5354,0,0,0,0,0,0,0,0,0,0,0,0,0,-3.5551,-3.5568,-3.5578,-3.551,-3.5503,-3.553,-3.5529,-3.5529,-3.5407,-3.5403,-3.5399,-3.5395,-3.535,-3.5352,-3.5354,-3.5444,0,0,-3.5359,-3.536,0,0,0,0,0,0,0,0,-3.5552,-3.5551,-3.552,-3.5514,-3.5507,-3.547,-3.5508,-3.55,-3.5408,-3.5444,-3.5398,-3.5393,-3.5394,-3.5392,-3.5392,-3.5441,-3.5439,-3.5359,-3.5361,-3.5361,-3.5362,0,0,0,0,0,0,0,-3.5553,-3.5552,-3.5559,-3.552,-3.5512,-3.5483,-3.5476,-3.5506,-3.5441,-3.544,-3.5431,-3.5427,-3.539,-3.539,-3.539,-3.5439,-3.5359,-3.5361,-3.5362,-3.5363,-3.5562,-3.5566,0,0,0,0,0,0,-3.5563,-3.5554,-3.556,-3.5557,-3.552,-3.5486,-3.5479,-3.5486,-3.5441,-3.543,-3.543,-3.5421,-3.5389,-3.5388,-3.5388,-3.549,-3.5361,-3.5363,-3.5364,-3.5558,-3.5563,-3.5568,0,0,0,0,0,0,-3.5564,-3.5565,-3.5562,-3.5553,-3.5551,-3.5491,-3.5499,-3.5487,-3.5487,-3.5433,-3.5422,-3.5443,-3.5386,-3.5385,-3.5431,-3.5486,-3.5364,-3.5365,-3.5553,-3.556,-3.5565,-3.5695,0,0,0,0,0,0,-3.5564,-3.5566,-3.5598,-3.5555,-3.5552,-3.5605,-3.5503,-3.5489,-3.549,-3.5478,-3.5442,-3.5432,-3.5383,-3.5429,-3.5433,-3.5487,-3.5367,-3.5548,-3.5556,-3.5563,-3.5686,-3.5705,-3.5722,0,0,0,0,0,-3.5564,-3.5636,-3.56,-3.5602,-3.559,-3.5609,-3.5607,-3.5548,-3.5495,-3.5528,-3.5494,-3.5433,-3.5481,-3.5435,-3.5438,-3.5493,-3.5544,-3.5554,-3.5563,-3.5678,-3.5702,-3.5722,0,0,0,0,0,0,-3.5687,-3.5629,-3.5588,-3.5649,-3.5635,-3.5588,-3.5626,-3.5575,-3.5576,-3.5564,-3.5493,-3.5486,-3.5542,-3.5522,-3.5472,-3.5579,-3.5502,-3.5513,-3.5589,-3.5611,-3.5629,-3.5631,-3.5368,0,0,0,0,0,-3.5721,-3.574,-3.5689,-3.5748,-3.5743,-3.5687,-3.5692,-3.5649,-3.5631,-3.5625,-3.5594,-3.558,-3.5592,-3.5601,-3.5609,-3.5684,-3.5675,-3.5724,-3.5743,-3.5758,-3.5767,-3.5807,-3.5828,-3.5599,-3.5599,-3.5599,0,0,-3.5792,-3.5763,-3.5779,-3.5772,-3.5755,-3.5778,-3.5682,-3.5709,-3.5725,-3.5629,-3.5669,-3.5648,-3.5628,-3.5689,-3.5715,-3.5675,-3.5829,-3.577,-3.5782,-3.5783,-3.5819,-3.584,-3.586,-3.5605,-3.5604,-3.5603,0,0,-3.5931,-3.5912,-3.5958,-3.5945,-3.5922,-3.5885,-3.5897,-3.5859,-3.584,-3.5881,-3.5809,-3.5829,-3.5851,-3.5839,-3.5837,-3.5978,-3.5922,-3.5983,-3.6077,-3.6116,-3.6134,-3.615,-3.62,-3.6219,-3.5993,-3.5993,-3.5994,0,-3.6022,-3.6051,-3.5989,-3.6021,-3.6021,-3.5937,-3.5984,-3.5975,-3.5956,-3.5959,-3.5915,-3.5942,-3.5922,-3.598,-3.6015,-3.6016,-3.6028,-3.5985,-3.6137,-3.6152,-3.6166,-3.6212,-3.6231,-3.6001,-3.6,-3.5999,-3.5999,0,-3.6164,-3.6186,-3.6227,-3.6211,-3.6216,-3.6256,-3.6202,-3.6215,-3.6173,-3.6141,-3.6185,-3.616,-3.6162,-3.6173,-3.6132,-3.6227,-3.6203,-3.615,-3.607,-3.6196,-3.6239,-3.6256,-3.6011,-3.6009,-3.6007,-3.6005,0,0,-3.6374,-3.6327,-3.6343,-3.6336,-3.6307,-3.6323,-3.6361,-3.6363,-3.6376,-3.6368,-3.6398,-3.6421,-3.6372,-3.6369,-3.6327,-3.6362,-3.6476,-3.6304,-3.6303,-3.6336,-3.6579,-3.6618,-3.664,-3.6441,-3.6444,-3.6446,-3.6581,0,-3.6505,-3.6564,-3.6512,-3.6583,-3.6603,-3.6526,-3.656,-3.6547,-3.652,-3.6534,-3.6505,-3.6522,-3.6456,-3.6454,-3.6486,-3.6456,-3.6524,-3.6446,-3.6468,-3.647,-3.6473,-3.6662,-3.6702,-3.683,-3.6597,-3.66,-3.6602,0,-3.6663,-3.6663,-3.6735,-3.6704,-3.6711,-3.6741,-3.674,-3.6756,-3.6741,-3.6719,-3.6718,-3.6668,-3.6704,-3.663,-3.6681,-3.6629,-3.6636,-3.6623,-3.6627,-3.6624,-3.6541,-3.6663,-3.6869,-3.6888,-3.6628,-3.6626,-3.6624,0,-3.6808,-3.6826,-3.6872,-3.6869,-3.6834,-3.6857,-3.6844,-3.6825,-3.6831,-3.6832,-3.6835,-3.684,-3.6843,-3.6849,-3.6802,-3.6752,-3.6859,-3.678,-3.6842,-3.6843,-3.6864,-3.6863,-3.7073,-3.6874,-3.6874,-3.6873,-3.6873,0,-3.6957,-3.7005,-3.6937,-3.6965,-3.7017,-3.6959,-3.7012,-3.6991,-3.6976,-3.7,-3.6935,-3.6959,-3.6897,-3.6915,-3.688,-3.6927,-3.6929,-3.6913,-3.6902,-3.6917,-3.6919,-3.6918,-3.6908,-3.6878,-3.6877,-3.6876,-3.6875,0,-3.7126,-3.7083,-3.7128,-3.7093,-3.7085,-3.7125,-3.7095,-3.7121,-3.7091,-3.7123,-3.7127,-3.7081,-3.71,-3.7055,-3.7067,-3.7043,-3.7111,-3.7087,-3.7115,-3.7107,-3.7171,-3.7165,-3.7385,-3.7411,-3.7198,-3.72,-3.7202,0,-3.7222,-3.7257,-3.7227,-3.7238,-3.7228,-3.7248,-3.7254,-3.72,-3.7209,-3.7197,-3.7224,-3.7238,-3.7245,-3.7279,-3.7248,-3.7257,-3.7232,-3.7309,-3.7233,-3.7248,-3.7232,-3.7229,-3.7233,-3.7324,-3.7326,-3.7328,-3.733,0,-3.7398,-3.7376,-3.7387,-3.7392,-3.7401,-3.7402,-3.7398,-3.7412,-3.7355,-3.7369,-3.7387,-3.7393,-3.7407,-3.7421,-3.7425,-3.7413,-3.7363,-3.7355,-3.737,-3.7383,-3.7398,-3.739,-3.7156,-3.7349,-3.7347,-3.7346,-3.7345,-3.7344,-3.7532,-3.756,-3.7544,-3.7559,-3.7551,-3.7551,-3.7573,-3.7548,-3.7562,-3.7568,-3.7537,-3.7563,-3.7551,-3.755,-3.7544,-3.7564,-3.7529,-3.7551,-3.7555,-3.7561,-3.7571,-3.7398,-3.7565,-3.7564,-3.7564,-3.7563,-3.7563,0,-3.7703,-3.769,-3.7705,-3.7703,-3.7716,-3.7669,-3.7664,-3.7678,-3.7701,-3.7694,-3.7704,-3.7727,-3.7742,-3.7713,-3.7724,-3.7746,-3.7724,-3.7751,-3.7747,-3.7745,-3.7602,-3.7587,-3.7769,-3.7769,-3.7769,-3.7769,-3.7769,-3.7769,-3.7794,-3.7838,-3.7816,-3.7858,-3.7844,-3.7869,-3.787,-3.787,-3.7864,-3.7892,-3.7904,-3.7886,-3.7871,-3.7881,-3.7894,-3.7885,-3.7892,-3.7927,-3.791,-3.7776,-3.7755,-3.7736,-3.7722,-3.7929,-3.7929,-3.8051,-3.8053,-3.8054]},{"header":{"parameterUnit":"m.s-1","parameterCategory":1,"la1":30.2991,"la2":30.254,"lo1":-89.0895,"lo2":-89.0444,"dy":0.0017,"dx":0.0017,"nx":28,"ny":28,"refTime":"2024-08-24T03:00:00:Z","depth":0,"parameterNumber":3,"parameterNumberName":"V-component_of_WINDS"},"data":[0,0,0,0,0,0,0,0,0,0,0,0,0,0,0,0,0,0,0,0,0,0,0,0,0,0,0,0,0,0,0,0,0,0,0,0,0,0,0,0,0,0,0,0,0,0,0,0,0,0,0,0,0,0,0,0,0,0,3.1436,3.1435,0,3.1396,3.1396,3.1395,3.1398,3.1398,3.1399,3.1399,3.1352,3.135,3.1348,0,0,0,0,0,0,0,0,0,0,0,0,0,3.1507,3.1505,3.1436,3.1435,3.1435,3.1397,3.1396,3.1395,3.1398,3.1398,3.1399,3.14,3.1352,3.135,3.1348,0,0,0,0,0,0,0,0,0,0,0,0,0,3.1472,3.1505,3.1436,3.1431,3.1431,3.1397,3.1396,3.1395,3.1397,3.1398,3.1399,3.14,3.1353,3.135,3.1348,3.1313,0,0,3.1339,3.1338,0,0,0,0,0,0,0,0,3.1474,3.147,3.1433,3.1432,3.1431,3.1403,3.1403,3.1367,3.1397,3.141,3.1399,3.14,3.1367,3.1364,3.1354,3.1311,3.1309,3.1339,3.1337,3.1336,3.1335,0,0,0,0,0,0,0,3.1476,3.1471,3.142,3.1432,3.1431,3.1429,3.1426,3.1397,3.1384,3.1409,3.1409,3.1405,3.1367,3.1357,3.1353,3.1308,3.1339,3.1337,3.1335,3.1334,3.1234,3.1233,0,0,0,0,0,0,3.1481,3.1473,3.1421,3.1419,3.1455,3.1427,3.1423,3.1411,3.1384,3.1381,3.1404,3.1405,3.1361,3.1356,3.1351,3.1309,3.1336,3.1334,3.1332,3.1235,3.1234,3.1233,0,0,0,0,0,0,3.1482,3.1476,3.1423,3.1446,3.1439,3.1425,3.1412,3.141,3.1399,3.1381,3.1378,3.1396,3.1361,3.1355,3.1323,3.1307,3.1332,3.133,3.1236,3.1235,3.1233,3.1224,0,0,0,0,0,0,3.1484,3.1477,3.1465,3.1446,3.1438,3.1397,3.1411,3.1408,3.1395,3.1396,3.1372,3.1369,3.1362,3.1327,3.132,3.1304,3.1328,3.1238,3.1236,3.1234,3.1225,3.1222,3.1219,0,0,0,0,0,3.1487,3.1462,3.1464,3.1458,3.1423,3.1396,3.1391,3.1385,3.1394,3.1381,3.1369,3.137,3.1311,3.1324,3.1316,3.1299,3.1238,3.1236,3.1234,3.1227,3.1223,3.1219,0,0,0,0,0,0,3.1476,3.1459,3.1462,3.143,3.1415,3.1397,3.138,3.1381,3.1361,3.1362,3.1353,3.1348,3.1316,3.1304,3.1319,3.1264,3.1275,3.1271,3.1272,3.1268,3.1265,3.1268,3.1325,0,0,0,0,0,3.1471,3.1453,3.1438,3.1411,3.1404,3.1394,3.1381,3.1379,3.1361,3.1354,3.134,3.1321,3.1298,3.1283,3.1261,3.1224,3.1218,3.1208,3.1205,3.1203,3.1199,3.1178,3.1174,3.1225,3.1225,3.1225,0,0,3.1458,3.1447,3.1435,3.1409,3.1397,3.1376,3.1388,3.1365,3.1349,3.1349,3.1319,3.1308,3.1286,3.1252,3.1236,3.1241,3.1184,3.12,3.1198,3.1196,3.1176,3.1171,3.1166,3.1224,3.1224,3.1224,0,0,3.1425,3.1415,3.1392,3.138,3.1363,3.1356,3.1351,3.1333,3.1326,3.1296,3.1296,3.1276,3.1237,3.1222,3.1209,3.1171,3.1171,3.1164,3.1147,3.1128,3.1123,3.112,3.1105,3.11,3.1161,3.1161,3.1161,0,3.141,3.1382,3.1379,3.1357,3.1345,3.1348,3.1324,3.1312,3.1287,3.1277,3.1284,3.1236,3.1222,3.1184,3.1175,3.1165,3.1157,3.1166,3.1125,3.1121,3.1117,3.1103,3.1098,3.116,3.116,3.116,3.116,0,3.1365,3.1345,3.1328,3.1307,3.1293,3.127,3.1262,3.1248,3.1247,3.1239,3.1208,3.1191,3.1166,3.1157,3.1154,3.1118,3.1122,3.1127,3.1138,3.1112,3.1099,3.1093,3.1159,3.1159,3.1159,3.116,0,0,3.1321,3.1301,3.1295,3.1286,3.1267,3.125,3.1227,3.1205,3.1193,3.1176,3.1155,3.1123,3.1128,3.1113,3.1109,3.1091,3.1062,3.1098,3.1098,3.1091,3.102,3.1016,3.101,3.1063,3.1062,3.1061,3.1022,0,3.1285,3.1246,3.1244,3.1208,3.1189,3.1192,3.1171,3.1157,3.1149,3.113,3.1121,3.1098,3.1107,3.1098,3.1081,3.1069,3.1047,3.1072,3.104,3.1039,3.1044,3.1003,3.0998,3.0962,3.1017,3.1016,3.1015,0,3.1237,3.1222,3.1184,3.117,3.1161,3.1143,3.1123,3.1106,3.1089,3.1085,3.107,3.1068,3.1042,3.1056,3.1019,3.1036,3.1023,3.1015,3.1014,3.1009,3.1025,3.0996,3.0951,3.0945,3.1007,3.1008,3.1009,0,3.1208,3.1178,3.1152,3.1144,3.1126,3.1113,3.1105,3.1089,3.1076,3.1058,3.1049,3.1028,3.1015,3.0997,3.0989,3.1,3.0952,3.0966,3.0946,3.0946,3.0934,3.0935,3.0885,3.0928,3.0928,3.0929,3.0929,0,3.1167,3.1143,3.1139,3.1122,3.1096,3.1093,3.1067,3.1059,3.1045,3.1026,3.1027,3.1008,3.1,3.0979,3.0972,3.0942,3.0937,3.0931,3.0929,3.093,3.0931,3.092,3.0922,3.0927,3.0927,3.0928,3.0928,0,3.1129,3.1125,3.1097,3.1084,3.108,3.1061,3.1048,3.1031,3.1025,3.1001,3.0995,3.0984,3.096,3.0951,3.0921,3.0916,3.0881,3.0882,3.0888,3.0887,3.0867,3.0869,3.0807,3.0799,3.085,3.0849,3.0849,0,3.1102,3.1085,3.1071,3.1059,3.1051,3.1032,3.102,3.1017,3.1004,3.0984,3.0969,3.0947,3.0928,3.0889,3.0877,3.0854,3.0853,3.0833,3.0849,3.0851,3.0851,3.0852,3.0849,3.083,3.0829,3.0829,3.0828,0,3.1055,3.1055,3.1038,3.1021,3.1007,3.0993,3.0979,3.0969,3.0963,3.0948,3.0925,3.0911,3.0882,3.0858,3.0835,3.0824,3.0824,3.0824,3.0818,3.0818,3.0821,3.0818,3.0878,3.0825,3.0825,3.0825,3.0826,3.0826,3.1021,3.1006,3.0994,3.0975,3.0965,3.0953,3.0937,3.093,3.0911,3.0889,3.0888,3.0863,3.0847,3.0816,3.0804,3.0783,3.0788,3.078,3.0777,3.0775,3.0773,3.0827,3.0779,3.0779,3.0779,3.0779,3.0779,0,3.0973,3.0966,3.0949,3.0931,3.0917,3.0922,3.0907,3.0894,3.0873,3.0859,3.0841,3.0815,3.0792,3.0779,3.0756,3.0742,3.0741,3.0736,3.0736,3.0733,3.077,3.0777,3.0737,3.0737,3.0737,3.0737,3.0737,3.0737,3.0946,3.092,3.0919,3.0888,3.088,3.0858,3.0849,3.0837,3.0826,3.0797,3.0779,3.0772,3.0758,3.0735,3.0714,3.071,3.0701,3.0695,3.0691,3.0726,3.073,3.0734,3.0741,3.0693,3.0693,3.0656,3.0655,3.0655]}]]